User: anonymous   Login
Location: Unspecified
(0.0000°N, 0.0000°E)
Time: 20:25:29
(UTC+00:00)
Language:

NNS O-32 - Orbit

View from above orbital plane
View from above orbital plane
View from above satellite
View from above satellite

Ground track
Ground track

The orbit data is extracted from the following two-line orbital elements,

1 19071U 88033B   17207.25188525 +.00000026 +00000-0 +35743-4 0  9997
2 19071 090.3661 274.9100 0189717 041.7956 021.4142 13.27595602416569
Epoch (UTC): 26 July 2017 06:02:42
Eccentricity: 0.0189717
inclination: 90.3661°
perigee height: 1013 km
apogee height: 1299 km
right ascension of ascending node: 274.9100°
argument of perigee: 41.7956°
revolutions per day: 13.27595602
mean anomaly at epoch: 21.4142°
orbit number at epoch: 41656

The dashed part of the orbit path shows where the satellite is in the earth's shadow,  

DLR